|
NORAD ID: 27765 Int'l Code: 2000-040D
Perigee: 199.0 km
Apogee: 7,046.7 km
Inclination: 38.9 °
Period: 165.7 minutes
Semi major axis: 9993 km
Launch date: July 16, 2000
Source: United States (US)
Note: This is SATELLITE DEBRIS
Two Line Element Set (TLE):
1 27765U 00040D 13142.39810437 .00085931 27068-6 61337-3 0 8264
2 27765 038.9050 125.0188 3425976 357.6395 091.0258 08.68965267273973
Source:
NASA's NSSDC Master Catalog entry for DELTA 2 DEB
|